Location: Eckley
(40.9930°N, 75.8630°W)
Time: 13:18:52
(UTC-04:00)

Daily predictions for brighter satellites

Satellite Brightness Start Highest point End
(mag) Time Altitude Azimuth Time Altitude Azimuth Time Altitude Azimuth
Cosmos 2237 Rocket 3.3 20:09:37 10° SSE 20:13:47 22° E 20:17:59 10° NE
Cosmos 1892 3.5 20:10:49 10° N 20:14:25 34° ENE 20:17:58 10° SE
BREEZE-M DEB (TANK) 3.7 20:08:06 10° WNW 20:14:57 67° SSW 20:18:23 10° SE
YAOGAN 6 3.4 20:15:52 10° SE 20:19:07 33° ENE 20:22:26 10° N
EO 1 Del DPAF 4.3 20:16:45 10° N 20:20:28 51° WNW 20:24:10 10° SSW
Nadezhda 3 Rocket 4.2 20:15:14 10° N 20:21:27 56° E 20:27:39 10° SSE
Cosmos 2278 Rocket 3.3 20:18:03 10° N 20:22:55 28° NE 20:27:45 10° ESE
Genesis I 4.3 20:22:45 10° NNW 20:26:27 32° NE 20:30:04 10° ESE
Cosmos 1633 Rocket 3.4 20:22:28 10° N 20:26:40 46° E 20:30:51 10° SSE
Cosmos 2221 4.3 20:29:56 10° SW 20:33:52 36° WNW 20:37:49 10° N
NOSS 2-1 (C) 3.9 20:33:22 10° SW 20:36:56 57° NW 20:40:51 10° NNE
Cosmos 1515 Rocket 4.4 20:33:51 10° SSE 20:37:45 31° E 20:41:41 10° NNE
NOSS 2-1 (D) 4.0 20:34:22 10° SW 20:37:55 54° NW 20:41:50 10° NNE
BREEZE-M DEB (TANK) 3.2 20:33:36 10° WNW 20:38:35 47° NNE 20:40:37 14° E
Cosmos 1340 3.0 20:35:15 10° SSW 20:39:01 70° W 20:42:49 10° N
Thor Agena Rocket 3.5 20:36:44 10° NNE 20:42:00 80° ESE 20:47:17 10° SSW
Cosmos 2228 Rocket 3.7 20:38:31 10° SSE 20:42:28 34° E 20:46:27 10° NNE
SL-24 R/B - RUBIN 2 3.9 20:38:46 10° NW 20:43:04 62° WSW 20:47:24 10° SSE
Lacrosse 5 4.4 20:42:06 10° NNW 20:44:20 13° N 20:46:35 10° NNE
ATLAS 2AS CENTAUR R/B 3.1 20:37:46 10° NNW 20:45:42 68° NE 20:52:15 13° SE
OAO 2 Rocket 4.4 20:46:29 10° WSW 20:51:10 34° SSW 20:54:42 15° SE
Cosmos 1825 3.2 20:49:48 10° NNE 20:53:08 28° ENE 20:54:53 19° ESE
Spot 2 Rocket 3.6 20:49:13 10° SSE 20:54:12 59° ENE 20:59:13 10° N
Cosmos 1328 Rocket 3.5 20:52:06 10° S 20:56:29 75° E 21:00:56 10° NNE
Cosmos 2154 Rocket 4.3 20:51:49 10° SSW 20:58:04 72° W 21:04:18 10° N
ATLAS CENTAUR R/B 1.0 20:55:14 10° SSW 20:58:52 88° WNW 21:02:42 10° NNE
SL-8 R/B 3.7 20:54:30 10° SW 20:59:14 64° SE 21:04:00 10° ENE
SL-16 R/B 3.3 21:01:33 18° SE 21:03:54 23° E 21:08:14 10° NE
Resurs 01 Rocket 1.7 21:02:35 10° S 21:07:02 78° WSW 21:11:29 10° NNW
ARGOS 3.9 21:06:46 21° ESE 21:09:37 35° ENE 21:14:26 10° N
Cosmos 1470 Rocket 3.5 21:05:25 10° N 21:09:50 73° E 21:13:19 16° SSE
Meteor 2-3 Rocket 3.9 21:08:07 10° NNW 21:13:44 76° W 21:19:21 10° S
Cosmos 1939 Rocket 3.8 21:13:55 10° S 21:17:38 45° W 21:21:24 10° NNW
Cosmos 2341 Rocket 4.3 21:15:05 10° SSW 21:21:25 70° W 21:27:45 10° N
Cosmos 1869 3.4 21:19:48 25° SSE 21:21:54 54° E 21:25:50 10° NNE
NOSS 0 Rocket 4.0 21:17:07 10° SSW 21:23:17 82° WNW 21:29:32 10° NNE
Meteor 2-10 Rocket 4.0 21:20:50 18° SSE 21:24:53 49° E 21:30:27 10° NNE
Cosmos 2218 Rocket 4.0 21:19:52 10° S 21:26:09 71° E 21:32:33 10° NNE
USA 267 3.9 21:23:36 10° ENE 21:29:11 29° SE 21:34:44 10° S
Cosmos 1980 3.8 21:24:18 10° SSW 21:29:58 80° WNW 21:35:42 10° NNE
ERS-1 Rocket 3.6 21:30:09 30° ESE 21:31:37 37° ENE 21:36:12 10° N
Cosmos 407 Rocket 4.0 21:27:52 10° N 21:32:45 42° ENE 21:34:17 33° ESE
Cosmos 2297 4.3 21:30:07 10° N 21:35:29 41° ENE 21:37:25 31° ESE
Cosmos 1408 2.8 21:32:58 10° NNW 21:36:37 67° W 21:38:11 32° S
Cosmos 2366 rocket 3.9 21:31:28 10° S 21:37:40 78° E 21:43:57 10° N
H-2A R/B 2.3 21:36:33 36° ESE 21:38:03 47° ENE 21:42:49 10° N
Cosmos 1933 Rocket 3.9 21:34:04 10° NNW 21:38:25 65° W 21:41:04 23° S
Cosmos 2333 Rocket 3.5 21:35:39 10° SW 21:40:59 41° WNW 21:46:20 10° N
Cosmos 2369 Rocket 4.4 21:39:32 10° NNE 21:41:27 12° NE 21:43:22 10° ENE
Cosmos 1151 Rocket 3.8 21:37:36 10° SSW 21:41:45 51° W 21:45:55 10° N
Cosmos 1371 Rocket 3.9 21:36:37 10° SSW 21:41:56 85° ESE 21:47:19 10° NNE
Cosmos 1441 Rocket 4.2 21:45:33 31° NE 21:45:33 31° NE 21:47:56 10° NNE
SL-8 Rocket 4.3 21:40:33 10° SSW 21:46:49 68° W 21:53:05 10° N
Helios 1B rocket 4.4 21:47:29 10° NE 21:48:47 17° NE 21:48:47 17° NE
Cosmos 1707 Rocket 4.4 21:52:59 34° ENE 21:52:59 34° ENE 21:56:08 10° NNE
MetOp-A 4.0 21:51:20 38° SSE 21:53:28 86° ENE 21:58:51 10° NNW
Cosmos 1339 Rocket 4.4 21:48:33 10° N 21:54:41 89° E 21:57:44 32° S
Cosmos 2219 Rocket 4.3 21:50:54 10° WSW 21:55:43 28° NW 22:00:31 10° N
CZ-4C R/B 4.3 21:59:36 12° ENE 21:59:36 12° ENE 22:00:09 10° ENE
Cosmos 2237 Rocket 3.0 21:51:58 10° SW 21:57:25 51° WNW 22:02:55 10° NNE
Cosmos 1869 Rocket 3.5 21:56:31 10° N 22:00:52 65° E 22:00:54 65° E
Cosmos 2056 Rocket 3.6 21:58:00 10° SSW 22:03:26 80° WNW 22:08:52 10° NNE
Cosmos 1452 Rocket 4.3 22:05:38 35° ENE 22:05:38 35° ENE 22:09:18 10° NE
Cosmos 2278 Rocket 3.1 22:01:47 10° NW 22:07:08 43° WSW 22:09:51 26° SSW
Helios 1A 3.2 22:08:42 56° NE 22:08:42 56° NE 22:12:26 10° N
Terra 3.2 22:09:24 25° NE 22:09:24 25° NE 22:12:46 10° NNE
ATLAS 5 CENTAUR R/B 4.2 22:06:05 10° N 22:10:05 19° NE 22:12:37 15° ENE
Cosmos 1862 3.4 22:06:07 10° N 22:09:45 69° NNE 22:09:45 69° NNE
Cosmos 2098 Rocket 3.9 22:07:13 19° SSW 22:10:19 48° W 22:14:04 10° N
Cosmos 405 Rocket 3.3 22:15:04 50° N 22:15:04 50° N 22:18:04 10° N
Cosmos 405 4.0 22:14:40 10° NNW 22:17:29 43° WNW 22:17:29 43° WNW
Cosmos 1190 Rocket 4.2 22:18:54 10° NNW 22:24:08 64° WSW 22:24:56 56° SSW
Cosmos 1140 Rocket 3.5 22:22:05 10° NNW 22:27:07 68° ENE 22:27:07 68° ENE
ATLAS 2A CENTAUR R/B 4.3 22:14:03 10° SW 22:27:25 31° S 22:27:50 31° S
SPOT 5 2.8 22:28:34 68° NNE 22:28:34 68° NNE 22:32:33 10° N
Lacrosse 5 3.7 22:25:11 10° NNW 22:29:05 21° NNE 22:30:32 19° NE
Cosmos 1934 Rocket 4.2 22:33:03 50° ENE 22:33:03 50° ENE 22:38:22 10° NNE
ATLAS 2AS CENTAUR R/B 4.4 22:29:49 10° NW 22:36:00 27° WSW 22:39:43 18° SSW
Cosmos 1954 Rocket 3.9 22:31:50 10° NNW 22:36:48 80° N 22:36:48 80° N
GEOS 3 Rocket 3.8 22:35:27 10° NNE 22:40:48 71° NW 22:43:44 27° SW
SL-16 R/B 3.0 22:43:11 15° SW 22:47:38 50° WNW 22:53:08 10° NNE
CZ-2C R/B 4.2 22:49:11 30° NE 22:49:11 30° NE 22:52:11 10° N
Cosmos 2344 3.5 22:44:07 10° SSW 22:51:43 90° W 23:00:05 10° NE
SL-19 R/B 4.2 22:53:15 78° W 22:53:15 78° W 22:58:46 10° NNW
Cosmos 1000 Rocket 4.5 22:47:29 10° N 22:53:40 73° W 22:54:15 68° SW
Cosmos 1943 Rocket 3.5 22:50:23 10° N 22:54:37 27° NE 22:54:37 27° NE
Cosmos 1821 Rocket 4.1 22:57:37 63° SW 22:58:30 72° W 23:04:50 10° N
NOSS 3-4 (A) 4.2 23:00:12 10° NW 23:07:04 51° WSW 23:07:53 49° SW
NOSS 3-4 (C) 4.2 23:00:18 10° NW 23:07:10 51° WSW 23:07:59 49° SW
SPOT 1/Viking Rocket 4.4 23:09:39 45° W 23:09:39 45° W 23:14:16 10° NNW
USA 267 3.3 23:06:00 10° NE 23:12:32 76° NW 23:19:03 10° WSW
Cosmos 1603 4.4 23:16:16 46° NNE 23:16:16 46° NNE 23:20:09 10° NNE
Cosmos 2123 Rocket 4.0 23:09:57 10° N 23:15:50 77° NNW 23:15:50 77° NNW
H-2A R/B 4.0 23:17:10 19° WSW 23:17:41 20° W 23:21:18 10° NW
Cosmos 2369 Rocket 2.9 23:20:57 10° NNW 23:25:18 50° N 23:25:18 50° N
CZ-2C R/B 3.8 23:36:19 10° NNE 23:39:33 38° NNE 23:39:33 38° NNE
CZ-4C R/B 3.1 23:44:41 45° NNW 23:44:41 45° NNW 23:49:34 10° NNE
USA 234 3.5 23:45:38 61° NNE 23:45:38 61° NNE 23:52:00 10° NW
Terra 3.7 23:48:17 26° NW 23:48:17 26° NW 23:50:48 10° NNW
Cosmos 1605 Rocket 4.5 23:49:31 57° NW 23:49:31 57° NW 23:55:10 10° N
